Location: Hohe Wand Kleine Kanzel
(47.8330°N, 16.0170°E)
Time: 17:19:51
(UTC+02:00)

Courier 1B Rocket - Pass Details

Date: 01 August 2021
Orbit: 920 x 1202 km, 28.3° (Epoch: 23 September)

Event Time Altitude Azimuth Distance (km) Brightness Sun altitude
Rises 03:18:16 0° 221° (SW) 3,726 - -17.5°
Reaches altitude 10° 03:23:17 10° 189° (S) 2,707 - -17.0°
Maximum altitude 03:25:09 11° 172° (S) 2,590 - -16.8°
Exits shadow 03:25:43 11° 167° (SSE) 2,593 6.8 -16.8°
Drops below altitude 10° 03:27:00 10° 155° (SSE) 2,664 7.0 -16.6°
Sets 03:31:47 0° 123° (ESE) 3,568 8.0 -16.2°
